Highlands Peak, California Weather observations

Data are for observation ending at time listed.
 Day   Time    Ave.   Ave.  Ave.  Vector   Max.   Stn.    Total    Solar   Ave.  
  of    of     Air    Rel.  Wind   Wind    Wind   Baro.  Precip.   Rad.    Soil  
Year   Day     Temp.  Hum.  Speed  Dir.    Gust   Pres.                    Temp. 
2026   (PST)    F      %     mph   deg.    mph     mb.     in.     W/m2     F   
------------------------------------------------------------------------------
 242   11:10   74.0    28    3.2   187      8.0   929.1    0.00     887    78.4
 242   11:20   73.7    31    2.3   218      4.9   929.1    0.00     883    78.5
 242   11:30   73.8    30    3.6   222      7.2   929.1    0.00     873    78.5
 242   11:40   73.2    30    3.5   229      5.9   929.0    0.00     884    78.5
 242   11:50   74.0    28    3.6   209      8.5   929.1    0.00     898    78.7
 242   12:00   76.0    23    2.8   194      6.1   929.0    0.00     903    78.8
 242   12:10   75.8    23    3.1   217      7.1   928.9    0.00     910    78.9
 242   12:20   74.1    23    5.0   226      6.9   928.9    0.00     909    78.9
 242   12:30   72.8    20    4.5   228      6.2   928.9    0.00     915    79.1
 242   12:40   74.2    10    4.7   231      6.6   928.8    0.00     910    79.1
 242   12:50   74.5    13    4.7   229      7.2   928.8    0.00     905    79.2
 242   13:00   74.0    23    3.9   238      6.4   928.7    0.00     899    79.3
 242   13:10   73.1    29    3.2   238      5.3   928.7    0.00     894    79.5
 242   13:20   72.0    35    2.6   235      4.3   928.6    0.00     878    79.8
 242   13:30   72.2    40    3.3   222      6.0   928.6    0.00     864    80.2
 242   13:40   71.9    33    2.9   244      4.9   928.5    0.00     850    80.5
 242   13:50   73.0    23    2.3   240      4.7   928.5    0.00     833    80.7
 242   14:00   72.4    37    2.6   244      4.8   928.4    0.00     814    81.1
 242   14:10   71.7    29    2.7   244      4.4   928.3    0.00     772    81.4
 242   14:20   72.6    22    2.8   246      4.8   928.3    0.00     775    81.7
 242   14:30   72.7    12    2.7   246      4.7   928.2    0.00     751    82.0
 242   14:40   73.9    13    2.4   252      4.5   928.1    0.00     729    82.3
 242   14:50   73.6    10    2.9   247      5.1   928.0    0.00     706    82.6
 242   15:00   73.3    16    3.3   259      5.1   927.9    0.00     680    82.9
 242   15:10   73.9    21    3.1   249      5.0   927.8    0.00     651    83.2
 242   15:20   73.5    20    3.4   246      5.7   927.8    0.00     623    83.6
 242   15:30   72.9    19    3.6   248      5.8   927.7    0.00     592    83.8
 242   15:40   72.5    21    3.9   253      5.2   927.6    0.00     561    84.1
 242   15:50   73.2    20    2.6   248      4.7   927.6    0.00     530    84.4
 242   16:00   73.7    15    2.4   245      4.2   927.6    0.00     498    84.6
 242   16:10   73.6    15    3.1   253      4.8   927.7    0.00     464    84.9
 242   16:20   73.3    19    3.8   252      4.8   927.6    0.00     429    85.2
 242   16:30   72.6    26    3.5   250      5.0   927.6    0.00     394    85.4
 242   16:40   71.9    16    4.1   253      5.2   927.6    0.00     359    85.6
 242   16:50   71.5    21    3.2   277      4.7   927.5    0.00     323    85.8
 242   17:00   71.5    32    2.3   277      3.5   927.4    0.00     287    85.9
 242   17:10   71.3    38    1.0   247      2.6   927.4    0.00     252    86.1
 242   17:20   71.9    38    0.6    49      2.0   927.4    0.00     216    86.3
 242   17:30   71.8    33    0.6   320      2.0   927.3    0.00     183    86.5
 242   17:40   71.4    40    0.8   257      2.2   927.2    0.00     152    86.6
 242   17:50   69.5    46    1.9   267      5.0   927.1    0.00     123    86.8
 242   18:00   68.6    32    3.5   274      5.0   927.1    0.00      97    86.9
 242   18:10   68.4    24    2.2   290      4.3   927.1    0.00      72    86.9
 242   18:20   68.5    22    1.7   285      3.3   927.0    0.00      49    87.0
 242   18:30   67.8    20    2.4   274      4.5   927.0    0.00      29    87.0
 242   18:40   66.0    17    5.0   266      6.3   926.9    0.00      11    87.0
 242   18:50   64.4    18    5.7   274      7.0   926.9    0.00       2    87.0
 242   19:00   63.4    21    5.5   286      6.8   926.9    0.00       1    87.1
 242   19:10   65.0    15    3.6   297      4.7   926.9    0.00       0    87.0
 242   19:20   65.9    18    2.3   281      3.6   926.9    0.00       0    86.9
 242   19:30   66.0    13    0.6    73      2.7   927.0    0.00       0    86.9
 242   19:40   66.2    12    2.7   288      5.5   927.0    0.00       0    86.9
 242   19:50   65.8     8    4.2   295      5.6   927.1    0.00       0    86.9
 242   20:00   66.6     9    3.4   329      5.4   927.1    0.00       0    86.9
 242   20:10   66.9     9    2.9   318      5.2   927.2    0.00       0    86.8
 242   20:20   66.7    10    3.2   359      4.8   927.3    0.00       0    86.7
 242   20:30   66.2    10    4.9   356      6.9   927.3    0.00       0    86.6
 242   20:40   67.1     8    6.0    11      7.7   927.4    0.00       0    86.5
 242   20:50   67.9     7    5.1    11      9.0   927.4    0.00       0    86.3
 242   21:00   67.2     7    6.4    17      8.5   927.4    0.00       0    86.2
 242   21:10   67.8     7    6.3    20      8.8   927.3    0.00       0    86.0
 242   21:20   66.3     8    7.2    24      9.3   927.3    0.00       0    85.9
 242   21:30   65.4     9    8.5    24     11.1   927.3    0.00       0    85.8
 242   21:40   64.8    10    6.9    26     10.4   927.2    0.00       0    85.7
 242   21:50   64.8    10    6.9    28     10.5   927.1    0.00       0    85.6
 242   22:00   64.2    10    5.1    31      6.6   927.1    0.00       0    85.4
 242   22:10   65.2    11    3.2    20      5.8   927.1    0.00       0    85.2
 242   22:20   64.4    17    1.6   252      2.3   927.1    0.00       0    84.9
 242   22:30   64.0    18    0.4   296      1.2   927.2    0.00       0    84.7
 242   22:40   64.0    17    1.4   186      2.9   927.2    0.00       0    84.7
 242   22:50   64.0    20    3.8   234      4.9   927.3    0.00       0    84.4
 242   23:00   63.9    18    2.4   275      3.9   927.3    0.00       0    84.1
 242   23:10   64.4    16    1.1   347      2.0   927.3    0.00       0    84.1
 242   23:20   64.5    15    0.8   318      1.3   927.2    0.00       0    84.0
 242   23:30   64.8    14    0.4   295      1.3   927.2    0.00       0    83.7
 242   23:40   64.5    12    1.8    37      3.8   927.1    0.00       0    83.7
 242   23:50   64.1    11    2.6    26      4.0   927.1    0.00       0    83.7
 243    0:00   64.4    10    3.8   357      5.8   927.1    0.00       0    83.5
 243    0:10   64.4    10    3.2   341      5.2   927.1    0.00       0    83.3
 243    0:20   64.9     9    2.8   319      4.0   927.1    0.00       0    83.1
 243    0:30   65.5    10    1.9   324      3.6   927.0    0.00       0    82.8
 243    0:40   64.8     9    3.4     9      5.6   927.0    0.00       0    82.8
 243    0:50   65.0     9    2.3     2      4.1   926.9    0.00       0    82.7
 243    1:00   65.2     9    1.8   340      3.1   926.8    0.00       0    82.5
 243    1:10   63.6     9    4.1    23      6.9   926.7    0.00       0    82.4
 243    1:20   62.7     9    4.4    38      5.6   926.7    0.00       0    82.3
 243    1:30   63.3    11    2.7   134      3.4   926.7    0.00       0    82.2
 243    1:40   63.8    12    2.2   109      2.6   926.6    0.00       0    82.1
 243    1:50   64.5    10    0.9   281      1.7   926.6    0.00       0    81.9
 243    2:00   65.2     9    1.1   288      2.0   926.6    0.00       0    81.7
 243    2:10   65.0     9    2.6    10      3.3   926.6    0.00       0    81.6
 243    2:20   64.4     8    4.3    15      6.0   926.6    0.00       0    81.4
 243    2:30   64.3     7    3.6    12      5.3   926.5    0.00       0    81.2
 243    2:40   64.6     7    3.3    25      4.7   926.5    0.00       0    81.1
 243    2:50   64.2     7    3.8    17      5.0   926.5    0.00       0    80.9
 243    3:00   64.0     8    2.8    48      4.6   926.5    0.00       0    80.8
 243    3:10   62.7    11    1.2   210      1.9   926.5    0.00       0    80.6
 243    3:20   60.6    14    0.2   210      1.2   926.5    0.00       0    80.6
 243    3:30   60.7    10    3.4    34      5.9   926.5    0.00       0    80.6
 243    3:40   62.2     8    1.3    44      2.9   926.5    0.00       0    80.4
 243    3:50   60.4    20    1.9   238      2.3   926.5    0.00       0    80.1
 243    4:00   58.9    28    2.1   224      2.6   926.5    0.00       0    79.9
 243    4:10   57.8    21    1.1   253      2.5   926.6    0.00       0    79.8
 243    4:20   57.8    18    1.0   272      1.4   926.6    0.00       0    79.8
 243    4:30   58.2    19    1.5    24      3.3   926.5    0.00       0    79.7
 243    4:40   58.6    17    0.7   313      1.7   926.5    0.00       0    79.7
 243    4:50   58.9    12    2.6    21      4.5   926.4    0.00       0    79.6
 243    5:00   59.1    10    2.5   354      4.6   926.4    0.00       0    79.4
 243    5:10   51.2    66    3.1   249      4.5   926.6    0.00       0    78.7
 243    5:20   45.1    90    2.9   283      4.5   926.7    0.00       0    78.5
 243    5:30   44.4    96    2.7   269      3.7   926.6    0.00       1    78.2
 243    5:40   44.0    98    2.9   252      4.2   926.7    0.00       4    78.0
 243    5:50   44.4    99    4.0   231      5.8   926.8    0.00       7    77.7
 243    6:00   44.7   100    5.0   242      7.0   926.8    0.00       9    77.1
 243    6:10   45.0   100    5.3   243      7.8   927.0    0.00      11    76.7
 243    6:20   45.2   100    3.0   254      5.1   927.0    0.00      15    76.6
 243    6:30   45.5   100    5.3   231      8.3   927.1    0.00      86    76.3
 243    6:40   46.2   100    5.6   237      8.0   927.4    0.00     125    76.0
 243    6:50   46.7   100    4.0   250      6.4   927.4    0.00     183    76.0
 243    7:00   46.7   100    6.0   235      9.4   927.6    0.00     160    75.7
 243    7:10   46.9   101    3.7   260      7.1   927.7    0.00     205    75.7
 243    7:20   47.0   104    2.6   243      5.0   927.7    0.00     355    75.6
 243    7:30   47.3   100    2.6   213      5.0   927.9    0.00     384    75.4
 243    7:40   47.9   100    2.8   234      4.5   928.0    0.00     419    75.3
 243    7:50   48.0   100    1.7   278      3.9   927.9    0.00     450    75.2
 243    8:00   49.9    95    2.7   156      4.5   927.9    0.00     486    75.3
 243    8:10   51.0    92    2.9   133      5.5   928.0    0.00     518    75.4
 243    8:20   53.7    81    1.9   154      4.5   928.0    0.00     551    75.5
 243    8:30   52.8    84    2.8   210      5.1   928.1    0.00     583    75.1
 243    8:40   52.6    88    1.4   225      3.8   928.1    0.00     613    75.1
 243    8:50   54.0    82    2.4   262      4.5   928.1    0.00     644    75.0
 243    9:00   52.5    88    2.2   226      3.7   928.2    0.00     675    74.8
 243    9:10   55.2    82    2.9   123      6.9   928.4    0.00     703    75.0
 243    9:20   55.1    81    2.3   176      6.7   928.5    0.00     730    74.9
 243    9:30   54.0    84    2.0   238      5.0   928.5    0.00     754    74.8
 243    9:40   53.9    85    3.9   240      7.0   928.6    0.00     776    74.6
 243    9:50   53.5    86    4.6   234      7.0   928.7    0.00     808    74.5
 243   10:00   52.9    88    4.2   248      6.9   928.7    0.00     826    74.4
 243   10:10   53.3    88    4.7   234      8.4   928.7    0.00     849    74.3
 243   10:20   53.4    88    3.7   247      6.6   928.8    0.00     849    74.3
 243   10:30   54.3    85    4.0   243      6.3   928.8    0.00     841    74.3
 243   10:40   54.0    86    5.3   236      8.8   928.8    0.00     815    74.3
 243   10:50   53.9    87    5.8   244      9.1   928.9    0.00     826    74.2
 243   11:00   54.1    86    4.4   245      7.7   928.9    0.00     896    74.3

Return to Highlands Peak graphs page.


Western Regional Climate Center,wrcc@dri.edu